Regional Weather Roundup
Issued by NWS Goodland, KS

Home | Current Version | Previous Version | Graphics & Text | Print | Product List | Glossary On
Versions: 1 2 3 4 5 6 7 8 9 10 11 12 13 14 15 16 17 18 19 20 21 22 23 24 25 26 27 28 29 30 31 32 33 34 35 36 37 38 39 40 41 42 43 44 45 46 47 48 49 50
000
ASUS43 KGLD 250008
RWRGLD

GOODLAND FORECAST AREA HOURLY WEATHER ROUNDUP
NATIONAL WEATHER SERVICE GOODLAND KS
600 PM MDT FRI MAR 24 2017

...OFFICIAL OBSERVATIONS...

CITY           SKY/WX    TMP DP  RH WIND       PRES   REMARKS
GOODLAND KS    CLOUDY    40  38  93 N24G31    30.05R
HILL CITY KS   CLOUDY    43  40  89 N14G28    29.98R
IMPERIAL NEB   LGT RAIN  43  38  82 N12       30.10R
MCCOOK NEB     CLOUDY    42  40  92 N18G25    30.02F
AKRON CO       CLOUDY    47  34  60 E9        30.12R
BURLINGTON CO  MIX PCPN  36  35  96 N23G32    30.07R
LIMON CO       MOSUNNY   43  35  73 N12       30.12S
$$

...UNOFFICIAL OBSERVATIONS...

CITY           SKY/WX    TMP DP  RH WIND       PRES   REMARKS
LENORA KS        N/A     41  32  70 N14         N/A
NORTON KS      CLOUDY    41  36  81 N21G29    29.98S
SHARON SPRINGS   N/A     39  37  92 NE22G29     N/A
TRENTON NEB      N/A     39  32  76 N16         N/A
YUMA CO        FAIR      43  36  75 NE9       30.11S
$$



USA.gov is the U.S. government's official web portal to all federal, state and local government web resources and services.